Inquirer Daily News

Weather

Get conditions and forecasts for any City, State, ZIP code or Country:  
Northeast Philadelphia, PA
on Thursday, February 14, 2013

Thursday
Previous Day Next Day
Daily Summary
 ActualAverage (KTTN)Record (KTTN)
Temperature
Mean Temperature °F 34°F  
Max Temperature 46°F 42°F 66°F (1946)
Min Temperature 30°F 26°F 0°F (1916)
Degree Days
Heating Degree Days 27 31  
Month to date heating degree days 452  
Since 1 July heating degree days 3398  
Cooling Degree Days 0 0  
Month to date cooling degree days 0  
Year to date cooling degree days 0  
Moisture
Dew Point 30°F   
Average Humidity 79    
Maximum Humidity 100    
Minimum Humidity 46    
Precipitation
Precipitation 0.04 in 0.08 in 1.18 in (2005)
Month to date precipitation 1.07  
Year to date precipitation 4.23  
Wind
Wind Speed 5 mph   
Max Wind Speed 12 mph   
Max Gust Speed mph   
Visibility 6 miles   
Events Snow   

Key: T is trace of precipitation, MM is missing value
Source: NWS Daily Summary
Time(EST)TemperatureDew PointHumidity Pressure Visibility Wind DirectionWind SpeedGust SpeedPrecipitationEvents Conditions
12:43 AM 33.8°F 30.2°F 87% 29.75 in 2.5 miles NNW 4.6 mph - 0.02 in Snow Light Snow
12:49 AM 33.8°F 32.0°F 93% 29.74 in 3.0 miles NNW 4.6 mph - 0.03 in Snow Light Snow
12:54 AM 33.1°F 32.0°F 96% 29.75 in 3.0 miles NNW 4.6 mph - 0.03 in Snow Light Snow
1:50 AM 33.8°F 30.2°F 87% 29.78 in 4.0 miles WNW 4.6 mph - 0.00 in   Mostly Cloudy
1:54 AM 33.1°F 32.0°F 96% 29.78 in 5.0 miles WNW 4.6 mph - 0.00 in   Mostly Cloudy
2:15 AM 33.8°F 32.0°F 93% 29.79 in 5.0 miles WNW 3.5 mph - N/A   Overcast
2:47 AM 33.8°F 32.0°F 93% 29.80 in 5.0 miles NNW 6.9 mph - N/A   Overcast
2:54 AM 34.0°F 32.0°F 92% 29.81 in 5.0 miles NW 6.9 mph - N/A   Overcast
3:01 AM 33.8°F 30.2°F 87% 29.81 in 4.0 miles NW 5.8 mph - 0.01 in   Overcast
3:26 AM 33.8°F 32.0°F 93% 29.82 in 4.0 miles NW 4.6 mph - 0.01 in   Overcast
3:54 AM 33.1°F 32.0°F 96% 29.83 in 4.0 miles West 3.5 mph - 0.01 in   Overcast
4:03 AM 33.8°F 32.0°F 93% 29.83 in 4.0 miles WSW 3.5 mph - N/A   Overcast
4:54 AM 33.1°F 32.0°F 96% 29.85 in 4.0 miles WNW 3.5 mph - N/A   Partly Cloudy
5:17 AM 30.2°F 30.2°F 100% 29.86 in 4.0 miles West 3.5 mph - N/A   Scattered Clouds
5:54 AM 32.0°F 30.9°F 96% 29.88 in 3.0 miles SW 3.5 mph - N/A   Clear
6:54 AM 30.9°F 30.9°F 100% 29.92 in 3.0 miles WSW 3.5 mph - N/A   Clear
7:01 AM 30.2°F 30.2°F 100% 29.92 in 2.5 miles WSW 3.5 mph - N/A   Clear
7:22 AM 32.0°F 30.2°F 93% 29.92 in 3.0 miles NW 5.8 mph - N/A   Clear
7:54 AM 34.0°F 30.9°F 89% 29.95 in 4.0 miles WNW 8.1 mph - N/A   Clear
8:54 AM 37.0°F 32.0°F 82% 29.97 in 5.0 miles NW 6.9 mph - N/A   Haze
9:54 AM 39.0°F 32.0°F 76% 29.98 in 8.0 miles NNW 11.5 mph - N/A   Clear
10:54 AM 41.0°F 30.9°F 67% 29.99 in 10.0 miles NNW 5.8 mph - N/A   Clear
11:54 AM 43.0°F 28.9°F 58% 29.99 in 10.0 miles NW 4.6 mph - N/A   Clear
12:54 PM 44.1°F 27.0°F 51% 29.97 in 10.0 miles WNW 3.5 mph - N/A   Clear
1:54 PM 46.0°F 28.9°F 51% 29.97 in 10.0 miles West 9.2 mph - N/A   Scattered Clouds
2:54 PM 45.0°F 28.0°F 52% 29.98 in 10.0 miles WSW 8.1 mph - N/A   Scattered Clouds
3:54 PM 45.0°F 26.1°F 48% 29.98 in 10.0 miles WSW 6.9 mph - N/A   Unknown
4:23 PM 46.4°F 26.6°F 46% 29.98 in 10.0 miles WSW 5.8 mph - N/A   Partly Cloudy
4:54 PM 44.1°F 27.0°F 51% 29.99 in 10.0 miles West 8.1 mph - N/A   Partly Cloudy
5:54 PM 42.1°F 27.0°F 55% 29.99 in 10.0 miles SW 3.5 mph - N/A   Clear
6:54 PM 42.1°F 28.0°F 58% 30.01 in 10.0 miles SSW 4.6 mph - N/A   Clear
7:54 PM 39.9°F 28.0°F 63% 30.02 in 10.0 miles SW 5.8 mph - N/A   Clear
8:54 PM 39.0°F 28.9°F 67% 30.03 in 10.0 miles Calm Calm - N/A   Clear
9:54 PM 37.9°F 28.9°F 70% 30.04 in 9.0 miles SSW 5.8 mph - N/A   Clear
10:54 PM 36.0°F 28.9°F 76% 30.03 in 8.0 miles SSW 4.6 mph - N/A   Clear
11:54 PM 35.1°F 30.0°F 82% 30.03 in 6.0 miles South 3.5 mph - N/A   Haze
Astronomy
Sunrise:06:54 AM (EST) Moon Rise:08:54 AM (EST)2/14
Sunset:05:34 PM (EST) Moon Set:10:35 PM (EST)2/14
Moon Phase
Feb. 14 Feb. 17 Feb. 25 Mar. 04 Mar. 11

Copyright © 2014 The Weather Underground, Inc.